Flag for Spain Weather past 2 weeks in Almería, Spain

Now
71 °F

Mild.


Feels Like: 74 °F
Forecast: 67 / 83 °F
Wind: No wind

Location: Almeria / Aeropuerto

Current Time: Sep 19, 2014 at 12:44:45 AM

Latest Report: Sep 19, 2014 at 12:00 AM


Visibility: N/A

Pressure: 29.87 "Hg

Humidity: 72%

Dew point: 62 °F

Location of AlmeríaLocation

Historic Weather in Almería — Graph

°F

Almería temperature yesterday

Maximum temperature yesterday: 82 °F (at 7:00 PM)
Minimum temperature yesterday: 66 °F (at 8:00 AM)
Average temperature yesterday: 74 °F

Past Weeks' High & Low Weather Summary

 TemperatureHumidityPressure
High88 °F (Sep 7, 3:00 PM)88% (Sep 4, 7:00 AM)30.02 "Hg (Sep 4, 7:00 AM)
Low66 °F (Sep 18, 8:00 AM)22% (Sep 16, 11:00 AM)29.73 "Hg (Sep 17, 7:00 PM)
Average78 °F71%29.89 "Hg
* Reported Sep 3 11:00 PM — Sep 18 11:00 PM, Almería, Weather by CustomWeather, © 2014

Note: Actual official high and low records may vary slightly from our data, if they occured in-between our weather recording intervals... More about our weather records

Advertising

Almería weather history for previous 24 hours

 ConditionsComfort  
Time TempWeatherWind HumidityBarometerVisibility
11:00 PM
Sep 18
72 °FMild.14 mph70%29.85 "HgN/A
10:00 PM76 °FMild.15 mph49%29.82 "HgN/A
9:00 PM78 °FWarm.17 mph43%29.80 "HgN/A
8:00 PM78 °FPartly sunny.16 mph52%29.78 "Hg19 mi
7:00 PM82 °FWarm.16 mph44%29.78 "HgN/A
6:00 PM80 °FWarm.15 mph56%29.79 "HgN/A
5:00 PM81 °FScattered clouds.21 mph50%29.79 "Hg19 mi
4:00 PM79 °FWarm.22 mph59%29.80 "HgN/A
3:00 PM76 °FMild.21 mph71%29.82 "HgN/A
1:00 PM74 °FMild.9 mph77%29.85 "HgN/A
12:00 PM73 °FMild.12 mph74%29.86 "HgN/A
11:00 AM73 °FPartly sunny.8 mph75%29.85 "Hg19 mi
10:00 AM75 °FMild.3 mph67%29.83 "HgN/A
9:00 AM70 °FMild.3 mph76%29.82 "HgN/A
8:00 AM66 °FPartly sunny.1 mph79%29.81 "Hg19 mi
7:00 AM67 °FMild.2 mph81%29.80 "HgN/A
6:00 AM68 °FMild.1 mph82%29.80 "HgN/A
5:00 AM69 °FPassing clouds.1 mph80%29.80 "Hg19 mi
4:00 AM70 °FMild.9 mph80%29.80 "HgN/A
3:00 AM70 °FMild.10 mph82%29.81 "HgN/A
2:00 AM71 °FMild.15 mph83%29.81 "HgN/A
1:00 AM72 °FMild.3 mph74%29.81 "HgN/A
12:00 AM73 °FMild.2 mph67%29.80 "HgN/A
Weather by CustomWeather, © 2014

See weather overviewHow to use our weather pages